sat.trackr.live / text

‹ back to catalog

STARLINK-31346

NORAD 58943 · 2024-027N

PAYLOAD ACTIVE UNKNOWN

§ Identity

Operator
Country
US
Launch date
2024-02-10
Launch site
AFWTR
Launch vehicle
Mass (kg)
RCS (m²)

Purposes: comms

External: N2YO · Heavens-Above · Gunter

§ Orbital elements

Epoch: 2026-09-20T07:38:30.952320Z

Period
93.85 min
Inclination
53.1612°
Eccentricity
0.0001334
Mean motion
15.34390956 rev/d
Perigee alt
461.8 km
Apogee alt
463.6 km
Semi-major
6,840.9 km
B*
3.0456e-5
RAAN
122.2918°
Arg perigee
103.5921°
Mean anomaly
256.5231°
Rev number
14,717

§ Raw data

STARLINK-313461 58943U 24027N   26263.31841380  .00000653  00000+0  30456-4 0  99962 58943  53.1612 122.2918 0001334 103.5921 256.5231 15.34390956147175

JSON: /api/v1/satellites/58943 · /tle

For live sub-satellite position, see the globe view (requires WebGL).

§ Visibility from observer

Set your observer location to see the next 7 days of passes ≥ 10°. The values pass through the URL so the page stays shareable.

No JS? Fill the form by hand. The geolocation button needs JavaScript.